Total_Precipitation_Accumulation
0.01 0.02 0.04 0.05 0.05 0.06 0.08 0.11 0.18 0.28 0.23 0.20 0.32 0.53 0.65 0.69 0.76 0.91 1.08 1.06 1.11 1.21 1.57 2.02 2.53 3.04 3.72 4.65 5.59 5.94 5.69 5.12 4.68 4.26 3.77 3.38 3.05 2.79 2.67 2.37 2.05 1.96 1.88 1.82
0.02 0.04 0.03 0.03 0.04 0.07 0.10 0.14 0.19 0.26 0.20 0.22 0.35 0.57 0.77 0.87 0.96 0.92 0.98 1.08 1.03 1.21 1.63 2.12 2.70 3.12 3.47 4.01 4.76 5.06 4.72 4.09 3.51 3.23 3.07 2.88 2.77 2.45 2.27 2.17 2.06 1.79 1.77 1.75
0.03 0.05 0.03 0.03 0.04 0.07 0.10 0.13 0.18 0.23 0.16 0.23 0.38 0.76 1.04 1.10 0.90 0.72 0.65 0.78 0.79 0.95 1.47 2.19 2.71 3.00 3.26 3.46 3.47 3.58 3.48 2.99 2.64 2.54 2.52 2.48 2.55 2.37 2.14 2.01 1.86 1.61 1.53 1.45
0.03 0.03 0.02 0.03 0.05 0.07 0.10 0.08 0.08 0.11 0.15 0.35 0.45 1.07 1.32 1.13 0.98 0.77 0.61 0.63 0.64 0.85 1.32 2.07 2.35 2.46 2.49 2.58 2.39 2.40 2.48 2.32 2.26 2.16 2.18 2.07 1.92 1.86 1.76 1.76 1.70 1.58 1.47 1.39
0.03 0.03 0.02 0.03 0.04 0.07 0.08 0.06 0.06 0.10 0.17 0.35 0.56 0.95 1.33 1.20 1.11 0.81 0.61 0.58 0.67 0.75 1.02 1.36 1.42 1.54 1.61 1.69 1.73 1.90 2.14 2.16 2.07 2.02 2.14 2.15 1.88 1.71 1.61 1.62 1.70 1.59 1.48 1.38
0.05 0.05 0.04 0.03 0.04 0.05 0.06 0.08 0.14 0.27 0.42 0.75 0.76 0.88 1.32 1.17 0.92 0.65 0.54 0.55 0.50 0.52 0.71 0.90 0.96 1.00 1.05 1.12 1.25 1.45 1.83 2.01 1.91 1.87 1.92 1.90 1.84 1.76 1.63 1.52 1.53 1.52 1.47 1.45
0.10 0.09 0.09 0.07 0.06 0.07 0.07 0.11 0.33 0.73 1.15 1.25 0.77 0.87 1.20 0.81 0.56 0.42 0.36 0.39 0.42 0.55 0.63 0.74 0.88 0.93 0.84 0.82 0.95 1.15 1.39 1.52 1.54 1.60 1.72 1.80 1.87 1.80 1.64 1.55 1.45 1.44 1.36 1.37
0.15 0.16 0.12 0.08 0.06 0.07 0.10 0.11 0.24 0.44 0.58 0.72 0.72 1.15 1.25 0.69 0.45 0.34 0.31 0.32 0.44 0.51 0.48 0.51 0.60 0.62 0.59 0.66 0.75 0.92 1.06 1.14 1.23 1.35 1.53 1.66 1.69 1.68 1.63 1.68 1.54 1.43 1.31 1.30
0.07 0.07 0.06 0.05 0.06 0.07 0.08 0.09 0.11 0.13 0.19 0.48 0.82 1.08 0.96 0.62 0.43 0.33 0.32 0.31 0.40 0.41 0.35 0.33 0.35 0.37 0.42 0.58 0.69 0.76 0.86 0.97 1.07 1.18 1.39 1.53 1.56 1.53 1.55 1.62 1.54 1.38 1.37 1.31
0.04 0.03 0.04 0.05 0.06 0.07 0.08 0.08 0.08 0.09 0.19 0.43 0.77 1.13 1.13 0.81 0.62 0.52 0.39 0.31 0.35 0.34 0.29 0.30 0.28 0.26 0.27 0.34 0.50 0.64 0.73 0.89 1.05 1.12 1.15 1.22 1.40 1.37 1.34 1.29 1.27 1.34 1.35 1.32
0.03 0.03 0.04 0.05 0.07 0.08 0.08 0.07 0.08 0.08 0.10 0.24 0.60 0.92 0.76 0.62 0.50 0.52 0.46 0.40 0.36 0.34 0.32 0.27 0.29 0.28 0.26 0.30 0.40 0.54 0.63 0.76 0.87 0.90 0.92 1.05 1.16 1.15 1.12 1.11 1.08 1.18 1.20 1.22
0.04 0.05 0.05 0.08 0.09 0.08 0.08 0.07 0.09 0.11 0.12 0.15 0.32 0.52 0.40 0.42 0.40 0.46 0.48 0.49 0.49 0.48 0.45 0.39 0.38 0.35 0.37 0.35 0.37 0.48 0.50 0.55 0.62 0.69 0.76 0.86 0.98 0.98 0.98 1.02 1.14 1.21 1.18 1.11
0.04 0.05 0.07 0.18 0.22 0.16 0.09 0.07 0.10 0.11 0.12 0.14 0.33 0.54 0.36 0.37 0.45 0.45 0.43 0.51 0.52 0.44 0.48 0.58 0.55 0.41 0.40 0.34 0.36 0.41 0.42 0.50 0.58 0.64 0.66 0.72 0.85 0.97 1.02 1.07 1.14 1.22 1.23 1.17
0.05 0.06 0.07 0.18 0.24 0.23 0.18 0.14 0.13 0.13 0.14 0.14 0.23 0.43 0.38 0.37 0.46 0.49 0.40 0.46 0.53 0.49 0.49 0.63 0.68 0.47 0.39 0.38 0.41 0.41 0.44 0.44 0.44 0.52 0.61 0.69 0.82 0.99 1.10 1.14 1.20 1.27 1.31 1.28
0.07 0.06 0.06 0.06 0.12 0.18 0.20 0.17 0.14 0.11 0.12 0.17 0.22 0.35 0.43 0.50 0.52 0.46 0.46 0.49 0.47 0.52 0.52 0.49 0.52 0.46 0.45 0.46 0.45 0.48 0.52 0.51 0.50 0.62 0.70 0.77 0.89 0.97 1.05 1.19 1.29 1.38 1.42 1.35
0.09 0.09 0.07 0.07 0.12 0.13 0.15 0.18 0.13 0.09 0.09 0.14 0.24 0.38 0.45 0.46 0.55 0.55 0.49 0.44 0.48 0.56 0.57 0.64 0.65 0.61 0.61 0.60 0.55 0.56 0.60 0.62 0.72 0.82 0.89 0.94 1.01 1.08 1.12 1.19 1.23 1.35 1.40 1.45
0.16 0.16 0.16 0.15 0.16 0.17 0.18 0.17 0.13 0.12 0.15 0.19 0.24 0.38 0.48 0.53 0.64 0.70 0.71 0.58 0.56 0.67 0.70 0.79 0.84 0.82 0.81 0.75 0.69 0.68 0.72 0.80 0.90 1.01 1.14 1.19 1.22 1.30 1.32 1.34 1.33 1.36 1.49 1.59
0.25 0.27 0.23 0.21 0.25 0.31 0.23 0.19 0.17 0.16 0.18 0.21 0.33 0.46 0.57 0.65 0.67 0.76 0.86 0.77 0.67 0.64 0.70 0.82 0.92 0.93 0.83 0.81 0.84 0.93 0.97 1.04 1.15 1.25 1.38 1.51 1.57 1.64 1.68 1.74 1.72 1.74 1.78 1.86
0.28 0.37 0.35 0.33 0.40 0.36 0.30 0.26 0.24 0.26 0.35 0.36 0.47 0.68 0.78 0.78 0.85 0.99 0.91 0.78 0.75 0.76 0.78 0.94 0.95 0.91 0.90 1.01 1.05 1.07 1.13 1.20 1.38 1.56 1.68 1.78 1.85 1.89 1.89 1.90 2.00 2.07 2.18 2.20
0.33 0.35 0.43 0.41 0.47 0.52 0.48 0.41 0.38 0.48 0.89 0.76 0.74 0.76 0.75 0.80 1.05 1.08 0.82 0.71 0.72 0.74 0.87 1.00 1.04 1.01 1.08 1.32 1.37 1.40 1.44 1.52 1.59 1.65 1.77 1.95 2.06 2.11 2.10 2.11 2.25 2.41 2.53 2.50
0.57 0.57 0.53 0.48 0.54 0.57 0.54 0.48 0.54 0.99 1.38 1.15 1.02 0.96 0.95 1.09 1.08 1.07 0.91 0.76 0.74 0.74 0.82 0.95 1.00 1.04 1.11 1.30 1.45 1.69 1.83 1.86 1.86 1.90 1.93 1.99 2.11 2.23 2.26 2.33 2.39 2.56 2.66 2.64
0.82 0.83 0.80 0.75 0.87 0.92 0.61 0.62 0.95 1.23 1.08 1.18 1.29 1.30 1.26 1.23 1.06 0.94 0.87 0.82 0.76 0.75 0.79 0.89 1.05 1.13 1.22 1.39 1.63 1.81 1.97 2.10 2.16 2.14 2.24 2.25 2.27 2.20 2.17 2.36 2.50 2.62 2.75 2.72
0.99 1.00 1.01 1.04 1.16 1.03 0.78 0.86 0.92 0.89 1.02 1.13 1.21 1.34 1.38 1.34 1.34 1.15 1.05 0.99 0.91 0.86 0.84 0.89 1.00 1.13 1.22 1.32 1.54 1.90 1.98 1.99 2.02 2.09 2.14 2.22 2.25 2.27 2.28 2.41 2.57 2.71 2.74 2.67
1.02 0.95 1.06 1.21 1.26 1.13 1.04 1.05 1.06 1.04 1.10 1.13 1.16 1.24 1.32 1.31 1.37 1.28 1.13 1.00 0.92 0.87 0.88 0.92 0.99 1.10 1.19 1.15 1.26 1.45 1.65 1.75 1.76 1.77 1.81 1.83 1.94 2.07 2.22 2.40 2.45 2.53 2.59 2.60
1.09 1.02 1.11 1.44 1.58 1.54 1.44 1.39 1.31 1.22 1.31 1.42 1.36 1.33 1.37 1.27 1.22 1.19 1.02 0.92 0.86 0.84 0.81 0.86 0.99 0.99 1.03 1.10 1.10 1.14 1.21 1.39 1.55 1.58 1.60 1.68 1.78 1.89 2.04 2.25 2.39 2.34 2.35 2.51
1.35 1.23 1.23 1.50 1.56 1.71 1.73 1.53 1.40 1.31 1.43 1.46 1.42 1.33 1.28 1.22 1.19 1.07 0.93 0.85 0.83 0.81 0.82 0.85 0.91 0.92 0.92 0.99 1.00 1.03 1.16 1.34 1.45 1.43 1.44 1.47 1.51 1.60 1.73 1.89 2.01 1.99 1.75 1.78